TimeCDT,TemperatureF,Dew PointF,Humidity,Sea Level PressureIn,VisibilityMPH,Wind Direction,Wind SpeedMPH,Gust SpeedMPH,PrecipitationIn,Events,Conditions,WindDirDegrees,DateUTC
12:53 AM,32.0,28.9,88,30.17,10.0,Calm,Calm,-,N/A,,Clear,0,2012-10-08 05:53:00
1:53 AM,33.1,30.0,89,30.17,10.0,ESE,5.8,-,N/A,,Clear,110,2012-10-08 06:53:00
2:53 AM,32.0,30.0,92,30.17,10.0,ESE,4.6,-,N/A,,Clear,110,2012-10-08 07:53:00
3:53 AM,32.0,28.9,88,30.17,10.0,Calm,Calm,-,N/A,,Clear,0,2012-10-08 08:53:00
4:53 AM,32.0,28.9,88,30.17,10.0,East,3.5,-,N/A,,Clear,90,2012-10-08 09:53:00
5:53 AM,30.9,28.0,89,30.17,10.0,East,3.5,-,N/A,,Clear,100,2012-10-08 10:53:00
6:53 AM,33.1,30.0,89,30.17,10.0,East,3.5,-,N/A,,Clear,100,2012-10-08 11:53:00
7:53 AM,34.0,30.9,89,30.19,10.0,ESE,3.5,-,N/A,,Clear,110,2012-10-08 12:53:00
8:53 AM,39.9,34.0,79,30.19,10.0,East,4.6,-,0.01,,Clear,100,2012-10-08 13:53:00
9:53 AM,46.9,34.0,61,30.18,10.0,Calm,Calm,-,N/A,,Clear,0,2012-10-08 14:53:00
10:53 AM,52.0,35.1,53,30.17,10.0,Variable,3.5,-,N/A,,Clear,0,2012-10-08 15:53:00
11:53 AM,57.0,30.0,36,30.15,10.0,SW,13.8,18.4,N/A,,Clear,220,2012-10-08 16:53:00
12:53 PM,59.0,28.0,31,30.13,10.0,SW,10.4,18.4,N/A,,Clear,220,2012-10-08 17:53:00
1:53 PM,60.1,28.0,30,30.09,10.0,South,13.8,20.7,N/A,,Clear,180,2012-10-08 18:53:00
2:53 PM,61.0,28.9,30,30.07,10.0,SW,12.7,16.1,N/A,,Clear,220,2012-10-08 19:53:00
3:53 PM,62.1,28.9,29,30.04,10.0,SSW,15.0,19.6,N/A,,Clear,200,2012-10-08 20:53:00
4:53 PM,61.0,30.0,31,30.03,10.0,South,9.2,-,N/A,,Clear,170,2012-10-08 21:53:00
5:53 PM,61.0,30.0,31,30.01,10.0,SSW,9.2,-,N/A,,Clear,200,2012-10-08 22:53:00
6:53 PM,57.0,32.0,39,30.02,10.0,South,4.6,-,N/A,,Clear,170,2012-10-08 23:53:00
7:53 PM,54.0,33.1,45,30.03,10.0,ESE,3.5,-,N/A,,Clear,110,2012-10-09 00:53:00
8:53 PM,52.0,33.1,49,30.03,10.0,ESE,5.8,-,N/A,,Clear,110,2012-10-09 01:53:00
9:53 PM,50.0,34.0,54,30.04,10.0,ESE,4.6,-,N/A,,Clear,120,2012-10-09 02:53:00
10:53 PM,48.9,36.0,61,30.04,10.0,SSE,4.6,-,N/A,,Clear,160,2012-10-09 03:53:00
11:53 PM,48.0,36.0,63,30.03,10.0,SSE,3.5,-,N/A,,Clear,160,2012-10-09 04:53:00